2024-172F

Last updated on Wed Oct 02 2024 00:02:05 GMT+0000 (Coordinated Universal Time)

1 61225U 24172F 24275.54582914 .07758539 23207-5 91430-3 0 9993 2 61225 97.9829 3.6570 0115503 195.0010 290.8414 16.17202934 1615

Satellite not in orbit